User: anonymous   Login
Location: Dompnac
(44.5644°N, 4.1026°E)
Time: 03:25:25
(UTC+00:00)
Language:

Cosmos 1025 Rocket - Orbit

View from above orbital plane
View from above orbital plane
View from above satellite
View from above satellite

Ground track
Ground track

The orbit data is extracted from the following two-line orbital elements,

1 10974U 78067B   20338.91670757  .00000144  00000-0  13138-4 0  9996
2 10974  82.4841  50.3381 0018906 107.3756 252.9530 14.87372848295692
Epoch (UTC): 03 December 2020 22:00:03
Eccentricity: 0.0018906
inclination: 82.4841°
perigee height: 593 km
apogee height: 619 km
right ascension of ascending node: 50.3381°
argument of perigee: 107.3756°
revolutions per day: 14.87372848
mean anomaly at epoch: 252.9530°
orbit number at epoch: 29569

The dashed part of the orbit path shows where the satellite is in the earth's shadow,  

DLR